Location: Long Geng
(2.6167°N, 114.1333°E)
Time: 14:02:41
(UTC+00:00)

Ariane 3 Deb - Pass Details

Date: 14 May 2021
Orbit: 251 x 18112 km, 6.8° (Epoch: 15 June)

Event Time Altitude Azimuth Distance (km) Brightness Sun altitude
Rises 12:21:37 0° 268° (W) 9,870 9.7 -27.7°
Reaches altitude 10° 12:32:24 10° 271° (W) 5,970 8.3 -30.2°
Enters shadow 12:44:12 58° 318° (NW) 1,042 3.8 -32.9°
